Flag for Norway Weather past 2 weeks in Vennesla, Norway

Now
54 °F

Sunny.


Feels Like: 51 °F
Forecast: 41 / 60 °F
Wind: 9 mph from South

Location: Kristiansand / Kjevik

Current Time: Apr 18, 2015 at 2:14:17 PM

Latest Report: Apr 18, 2015 at 1:50 PM


Visibility: 10 mi

Pressure: 30.21 "Hg

Humidity: 54%

Dew point: 37 °F

Location of VenneslaLocation

Historic Weather in Vennesla — Graph

°F

Vennesla temperature yesterday

Maximum temperature yesterday: 57 °F (at 1:20 PM)
Minimum temperature yesterday: 34 °F (at 5:20 AM)
Average temperature yesterday: 46 °F

Past Weeks' High & Low Weather Summary

 TemperatureHumidityPressure
High63 °F (Apr 7, 3:50 PM)100% (Apr 5, 10:20 PM)30.48 "Hg (Apr 5, 10:20 PM)
Low28 °F (Apr 4, 2:20 AM)27% (Apr 17, 1:20 PM)29.56 "Hg (Apr 15, 1:20 PM)
Average43 °F70%30.07 "Hg
* Reported Apr 3 12:20 PM — Apr 18 12:50 PM, Vennesla, Weather by CustomWeather, © 2015

Note: Actual official high and low records may vary slightly from our data, if they occured in-between our weather recording intervals... More about our weather records

Advertising

Vennesla weather history for previous 24 hours

 ConditionsComfort  
Time TempWeatherWind HumidityBarometerVisibility
12:50 PM
Sat, Apr 18
54 °FSunny.10 mph51%30.24 "Hg10 mi
12:20 PM52 °FSunny.14 mph50%30.24 "Hg10 mi
11:50 AM54 °FSunny.10 mph44%30.27 "Hg10 mi
11:20 AM52 °FSunny.9 mph50%30.27 "Hg10 mi
10:50 AM50 °FSunny.7 mph54%30.27 "Hg10 mi
10:20 AM46 °FSunny.5 mph57%30.30 "Hg10 mi
9:50 AM46 °FSunny.2 mph57%30.30 "Hg10 mi
9:20 AM43 °FSunny.2 mph66%30.30 "Hg10 mi
8:50 AM41 °FSunny.2 mph70%30.33 "Hg10 mi
8:20 AM37 °FPassing clouds.5 mph81%30.33 "HgN/A
7:50 AM34 °FSunny.5 mph87%30.33 "Hg10 mi
7:20 AM32 °FSunny.6 mph87%30.33 "Hg10 mi
6:50 AM32 °FClear.7 mph87%30.33 "Hg10 mi
6:20 AM32 °FClear.7 mph87%30.33 "Hg10 mi
5:50 AM32 °FClear.7 mph87%30.33 "Hg10 mi
5:20 AM32 °FChilly.8 mph87%30.33 "HgN/A
4:50 AM32 °FPassing clouds.7 mph87%30.33 "HgN/A
4:20 AM32 °FChilly.6 mph93%30.33 "HgN/A
3:50 AM32 °FChilly.7 mph93%30.33 "HgN/A
3:20 AM34 °FChilly.7 mph87%30.33 "HgN/A
2:50 AM34 °FPassing clouds.6 mph87%30.33 "HgN/A
2:20 AM34 °FPassing clouds.7 mph87%30.33 "HgN/A
1:50 AM34 °FPassing clouds.6 mph87%30.33 "HgN/A
1:20 AM36 °FPassing clouds.6 mph81%30.30 "HgN/A
12:50 AM36 °FChilly.7 mph81%30.30 "HgN/A
12:20 AM36 °FPassing clouds.7 mph87%30.30 "HgN/A
11:50 PM
Fri, Apr 17
36 °FChilly.7 mph87%30.30 "HgN/A
11:20 PM37 °FPassing clouds.6 mph81%30.27 "HgN/A
10:50 PM39 °FClear.6 mph75%30.27 "Hg10 mi
10:20 PM39 °FClear.5 mph75%30.24 "Hg10 mi
9:50 PM41 °FClear.6 mph70%30.24 "Hg10 mi
9:20 PM45 °FSunny.2 mph66%30.21 "Hg10 mi
8:50 PM45 °FSunny.2 mph71%30.21 "Hg10 mi
8:20 PM48 °FSunny.2 mph58%30.18 "Hg10 mi
7:50 PM50 °FSunny.3 mph50%30.18 "Hg10 mi
7:20 PM50 °FSunny.7 mph50%30.18 "Hg10 mi
6:50 PM54 °FPassing clouds.7 mph35%30.15 "HgN/A
6:20 PM54 °FPassing clouds.8 mph35%30.15 "HgN/A
5:50 PM54 °FPassing clouds.8 mph35%30.15 "HgN/A
5:20 PM55 °FPassing clouds.8 mph33%30.15 "HgN/A
4:50 PM55 °FPassing clouds.7 mph33%30.15 "HgN/A
4:20 PM54 °FSunny.9 mph38%30.12 "Hg10 mi
3:50 PM55 °FPassing clouds.9 mph36%30.12 "HgN/A
3:20 PM54 °FSunny.10 mph41%30.12 "Hg10 mi
2:50 PM54 °FSunny.14 mph41%30.12 "Hg10 mi
2:20 PM57 °FPassing clouds.7 mph31%30.12 "HgN/A
Weather by CustomWeather, © 2015

See weather overviewHow to use our weather pages